Weather History for KVBT - December, 2012

Change the Weather History Date:

Saturday, December 29, 2012

  Actual Average (KFYV) Record (KFYV)
Temperature  
Mean Temperature 25 °F 36 °F  
Max Temperature 33 °F 46 °F 67 °F (1964)
Min Temperature 17 °F 25 °F -4 °F (1983)
Degree Days  
Heating Degree Days 40 29  
Month to date heating degree days 794  
Since 1 July heating degree days 1623  
Moisture  
Dew Point 15 °F    
Average Humidity 72    
Maximum Humidity 86    
Minimum Humidity 52    
Precipitation  
Precipitation 0.00 in 0.10 in 0.78 in (1954)
Month to date precipitation 3.06  
Year to date precipitation 48.33  
Sea Level Pressure  
Sea Level Pressure 30.24 in    
Wind  
Wind Speed 8 mph (WNW)    
Max Wind Speed 12 mph    
Max Gust Speed 16 mph    
Visibility 9 miles    
Events      
T = Trace of Precipitation, MM = Missing Value Source: NWS Daily Summary

Daily Weather History Graph

Daily Weather History Graph

Search for Another Location

Airport or City:

Trip Planner

Search our weather history database for the weather conditions in past years. The results will help you decide how hot, cold, wet, or windy it might be!

Date:

Astronomy

Dec. 29, 2012 Rise Set
Actual Time 7:27 AM CST 5:10 PM CST
Civil Twilight 6:59 AM CST 5:39 PM CST
Nautical Twilight 6:26 AM CST 6:11 PM CST
Astronomical Twilight 5:55 AM CST 6:42 PM CST
Moon 6:41 PM CST (12/29) 8:04 AM CST (12/29)
Length of Visible Light 10h 40m
Length of Day
9h 42m
Full, 98% of the Moon is Illuminated
Dec 29
Full
Jan 4
Last Quarter
Jan 11
New
Jan 18
First Quarter
Jan 26
Full

Hourly Weather History & Observations

Time (CST) Temp. Windchill Dew Point Humidity Pressure Visibility Wind Dir Wind Speed Gust Speed Precip Events Conditions
12:15 AM 23.0 °F 13.9 °F 14.0 °F 68% 30.05 in 10.0 mi WNW 8.1 mph - N/A   Clear
12:55 AM 23.0 °F 13.1 °F 14.0 °F 68% 30.06 in 10.0 mi WNW 9.2 mph - N/A   Clear
1:15 AM 21.2 °F 10.1 °F 14.0 °F 74% 30.06 in 10.0 mi WNW 10.4 mph - N/A   Clear
1:35 AM 21.2 °F 10.1 °F 14.0 °F 74% 30.07 in 10.0 mi WNW 10.4 mph - N/A   Clear
1:55 AM 21.2 °F 10.9 °F 14.0 °F 74% 30.07 in 10.0 mi WNW 9.2 mph - N/A   Clear
2:15 AM 21.2 °F 11.7 °F 12.2 °F 68% 30.07 in 10.0 mi NW 8.1 mph - N/A   Clear
2:35 AM 21.2 °F 13.6 °F 12.2 °F 68% 30.08 in 10.0 mi NW 5.8 mph - N/A   Clear
2:55 AM 19.4 °F 9.5 °F 12.2 °F 74% 30.08 in 10.0 mi WNW 8.1 mph - N/A   Clear
3:15 AM 19.4 °F 10.4 °F 12.2 °F 74% 30.09 in 10.0 mi WNW 6.9 mph - N/A   Clear
3:35 AM 19.4 °F 8.6 °F 12.2 °F 74% 30.10 in 10.0 mi NW 9.2 mph - N/A   Clear
3:55 AM 19.4 °F 10.4 °F 12.2 °F 74% 30.10 in 10.0 mi NW 6.9 mph - N/A   Clear
4:15 AM 19.4 °F 7.9 °F 12.2 °F 74% 30.11 in 10.0 mi NW 10.4 mph - N/A   Clear
4:35 AM 17.6 °F 8.2 °F 12.2 °F 79% 30.11 in 10.0 mi NW 6.9 mph - N/A   Clear
4:55 AM 17.6 °F 7.3 °F 12.2 °F 79% 30.12 in 10.0 mi NW 8.1 mph - N/A   Clear
5:15 AM 17.6 °F 7.3 °F 10.4 °F 73% 30.13 in 10.0 mi WNW 8.1 mph - N/A   Partly Cloudy
5:35 AM 17.6 °F 7.3 °F 12.2 °F 79% 30.14 in 10.0 mi WNW 8.1 mph - N/A   Mostly Cloudy
5:55 AM 17.6 °F 7.3 °F 12.2 °F 79% 30.15 in 10.0 mi WNW 8.1 mph - N/A   Overcast
6:15 AM 17.6 °F 6.4 °F 12.2 °F 79% 30.16 in 9.0 mi WNW 9.2 mph - N/A   Overcast
6:35 AM 17.6 °F 7.3 °F 14.0 °F 86% 30.18 in 9.0 mi WNW 8.1 mph - N/A   Overcast
6:55 AM 17.6 °F 5.7 °F 12.2 °F 79% 30.20 in 8.0 mi WNW 10.4 mph - N/A   Overcast
7:15 AM 17.6 °F 8.2 °F 12.2 °F 79% 30.20 in 8.0 mi WNW 6.9 mph - N/A   Overcast
7:35 AM 17.6 °F 9.3 °F 14.0 °F 86% 30.21 in 7.0 mi WNW 5.8 mph - N/A   Overcast
7:55 AM 17.6 °F 8.2 °F 14.0 °F 86% 30.23 in 7.0 mi WNW 6.9 mph - N/A   Overcast
8:15 AM 19.4 °F 8.6 °F 12.2 °F 74% 30.23 in 7.0 mi WNW 9.2 mph - N/A   Overcast
8:35 AM 19.4 °F 9.5 °F 12.2 °F 74% 30.25 in 7.0 mi WNW 8.1 mph - N/A   Overcast
8:55 AM 19.4 °F 7.9 °F 14.0 °F 80% 30.26 in 7.0 mi WNW 10.4 mph - N/A   Overcast
9:15 AM 19.4 °F 9.5 °F 14.0 °F 80% 30.26 in 6.0 mi NW 8.1 mph - N/A   Overcast
9:35 AM 19.4 °F 8.6 °F 14.0 °F 80% 30.27 in 7.0 mi NW 9.2 mph - N/A   Overcast
9:55 AM 19.4 °F 7.2 °F 14.0 °F 80% 30.28 in 7.0 mi NW 11.5 mph - N/A   Overcast
10:15 AM 19.4 °F 7.9 °F 14.0 °F 80% 30.29 in 7.0 mi NW 10.4 mph 16.1 mph N/A   Mostly Cloudy
10:35 AM 21.2 °F 11.7 °F 14.0 °F 74% 30.29 in 8.0 mi NW 8.1 mph - N/A   Scattered Clouds
11:15 AM 23.0 °F 12.4 °F 17.6 °F 80% 30.30 in 9.0 mi West 10.4 mph - N/A   Clear
11:35 AM 24.8 °F 16.1 °F 15.8 °F 69% 30.30 in 10.0 mi WSW 8.1 mph - N/A   Clear
12:15 PM 26.6 °F 18.2 °F 17.6 °F 69% 30.28 in 10.0 mi WNW 8.1 mph - N/A   Clear
12:35 PM 26.6 °F 16.8 °F 17.6 °F 69% 30.28 in 10.0 mi WNW 10.4 mph - N/A   Clear
1:15 PM 28.4 °F 19.1 °F 17.6 °F 64% 30.26 in 10.0 mi NW 10.4 mph - N/A   Clear
1:35 PM 30.2 °F 22.6 °F 17.6 °F 60% 30.26 in 10.0 mi WNW 8.1 mph - N/A   Clear
1:55 PM 30.2 °F 23.4 °F 17.6 °F 60% 30.26 in 10.0 mi NW 6.9 mph - N/A   Clear
2:35 PM 32.0 °F 24.8 °F 17.6 °F 55% 30.28 in 10.0 mi WNW 8.1 mph - N/A   Clear
2:55 PM 33.8 °F 25.3 °F 19.4 °F 56% 30.29 in 10.0 mi West 11.5 mph - N/A   Clear
3:15 PM 33.8 °F 26.4 °F 17.6 °F 52% 30.30 in 10.0 mi West 9.2 mph - N/A   Clear
3:55 PM 33.8 °F 27.0 °F 19.4 °F 56% 30.31 in 10.0 mi WNW 8.1 mph - N/A   Clear
4:15 PM 33.8 °F 27.0 °F 17.6 °F 52% 30.31 in 10.0 mi West 8.1 mph - N/A   Clear
4:35 PM 33.8 °F 27.7 °F 17.6 °F 52% 30.31 in 10.0 mi West 6.9 mph - N/A   Clear
5:15 PM 30.2 °F 24.3 °F 17.6 °F 60% 30.31 in 10.0 mi West 5.8 mph - N/A   Clear
5:35 PM 30.2 °F 25.4 °F 17.6 °F 60% 30.32 in 10.0 mi West 4.6 mph - N/A   Clear
5:55 PM 28.4 °F 23.3 °F 15.8 °F 59% 30.33 in 10.0 mi West 4.6 mph - N/A   Clear
6:35 PM 26.6 °F - 15.8 °F 64% 30.33 in 10.0 mi Calm Calm - N/A   Clear
6:55 PM 24.8 °F - 15.8 °F 69% 30.33 in 10.0 mi Calm Calm - N/A   Clear
7:15 PM 24.8 °F 20.5 °F 15.8 °F 69% 30.32 in 10.0 mi SSW 3.5 mph - N/A   Clear
7:35 PM 24.8 °F 19.1 °F 15.8 °F 69% 30.33 in 10.0 mi SW 4.6 mph - N/A   Clear
7:55 PM 24.8 °F 20.5 °F 15.8 °F 69% 30.33 in 10.0 mi SW 3.5 mph - N/A   Clear
8:35 PM 24.8 °F 19.1 °F 17.6 °F 74% 30.34 in 10.0 mi SW 4.6 mph - N/A   Clear
8:55 PM 24.8 °F - 15.8 °F 69% 30.33 in 10.0 mi Calm Calm - N/A   Clear
9:15 PM 23.0 °F 15.8 °F 15.8 °F 74% 30.34 in 10.0 mi South 5.8 mph - N/A   Clear
9:35 PM 23.0 °F 17.0 °F 15.8 °F 74% 30.35 in 10.0 mi SSW 4.6 mph - N/A   Clear
9:55 PM 21.2 °F 13.6 °F 14.0 °F 74% 30.35 in 10.0 mi South 5.8 mph - N/A   Clear
10:35 PM 21.2 °F 14.9 °F 14.0 °F 74% 30.36 in 10.0 mi South 4.6 mph - N/A   Clear
10:55 PM 21.2 °F 14.9 °F 15.8 °F 80% 30.35 in 10.0 mi SSE 4.6 mph - N/A   Clear
11:15 PM 21.2 °F 16.4 °F 17.6 °F 86% 30.36 in 10.0 mi South 3.5 mph - N/A   Clear
11:35 PM 21.2 °F 16.4 °F 14.0 °F 74% 30.37 in 10.0 mi South 3.5 mph - N/A   Clear
11:55 PM 21.2 °F 16.4 °F 15.8 °F 80% 30.38 in 10.0 mi SSW 3.5 mph - N/A   Clear